SCP
0 0 0 0 0 0 0 0 0 0 0 0 0 0 0 0 0 0 0 0 0 0 0 0 0 1 1 0 1 1 1 1 1 1 1 1 1 1 0 0 0 0 0
0 0 0 0 0 0 0 0 0 0 0 0 0 0 0 0 0 0 0 0 0 0 0 0 0 0 0 0 0 0 1 1 1 1 1 1 1 1 0 0 0 0 0
0 0 0 0 0 0 0 0 0 0 0 0 0 0 0 0 0 0 0 0 0 0 0 0 0 0 0 0 0 0 0 0 0 1 1 1 1 1 1 1 0 0 0
0 0 0 0 0 0 0 0 0 0 0 0 0 0 0 0 0 0 0 0 0 0 0 0 0 0 0 0 0 1 1 1 1 1 1 1 1 1 1 1 1 0 1
0 0 0 0 0 0 0 0 0 0 0 0 0 0 0 0 0 0 0 0 0 0 0 0 0 0 0 0 0 0 0 1 1 1 0 1 1 1 1 1 1 0 1
0 0 0 0 0 0 0 0 0 0 0 0 0 0 0 0 0 0 0 0 0 0 0 0 0 0 1 0 0 0 1 1 1 1 1 1 1 1 1 1 1 0 1
0 0 0 0 0 0 0 0 0 0 0 0 0 0 0 0 0 0 0 0 0 0 0 0 0 0 0 1 1 1 0 1 1 1 1 1 1 1 1 0 0 0 1
0 0 0 0 0 0 0 0 0 0 0 0 0 0 0 0 0 0 0 0 0 0 0 0 0 0 0 0 1 1 0 1 1 1 1 1 1 1 1 1 0 1 0
0 0 0 0 0 0 0 0 0 0 0 0 0 0 0 0 0 0 0 0 0 0 0 0 0 0 0 0 0 0 1 1 0 0 1 1 1 0 0 0 0 0 0
0 0 0 0 0 0 0 0 0 0 0 0 0 0 0 0 0 0 0 0 0 0 0 0 0 0 0 0 0 0 0 1 0 0 0 1 1 1 0 0 0 0 0
0 0 0 0 0 0 0 0 0 0 0 0 0 0 0 0 0 0 0 0 0 0 0 0 0 0 0 0 0 0 0 0 0 0 1 0 1 1 1 0 0 0 0
0 0 0 0 0 0 0 0 0 0 0 0 0 0 0 0 0 0 0 0 0 0 0 0 0 0 0 0 0 0 0 0 0 0 0 0 0 1 1 0 0 0 0
0 0 0 0 0 0 0 0 0 0 0 0 0 0 0 0 0 0 0 0 0 0 0 0 0 0 0 0 0 0 0 0 0 0 0 0 0 0 0 0 1 0 0
0 0 0 0 0 0 0 0 0 0 0 0 0 0 0 0 0 0 0 0 0 0 0 0 0 0 0 0 0 0 0 0 0 0 0 0 0 0 0 0 0 0 0
0 0 0 0 0 0 0 0 0 0 0 0 0 0 0 0 0 0 0 0 0 0 0 0 0 0 -0 0 0 0 0 0 0 0 0 0 0 0 0 0 0 0 0
0 0 0 0 0 0 0 0 0 0 0 0 0 0 0 0 0 0 0 0 0 0 0 0 0 0 0 0 0 0 0 0 0 0 0 0 0 0 0 0 0 0 0
0 0 0 0 0 0 0 0 0 0 0 0 0 0 0 0 0 0 0 0 0 0 0 0 0 0 -0 0 0 0 0 0 0 0 0 0 0 0 0 0 0 0 0
0 0 0 0 0 0 0 0 0 0 0 0 0 0 0 0 0 0 0 0 0 0 0 0 0 0 0 0 0 0 0 0 0 0 0 0 0 0 0 0 0 0 0
0 0 0 0 0 0 0 0 0 0 0 0 0 -0 -0 0 0 0 0 0 0 -0 0 -0 0 0 0 0 0 0 0 0 0 0 0 0 0 0 0 0 0 0 0
0 0 0 0 0 0 0 0 0 -0 0 0 0 -0 -0 0 -0 -0 0 -0 -0 -0 0 -0 -0 0 0 0 0 0 0 0 0 0 0 0 0 0 0 0 0 0 0
0 0 0 0 0 0 0 0 0 -0 0 0 0 0 -0 -0 -0 -0 -0 0 -0 -0 0 0 0 0 0 0 0 0 0 0 0 0 0 0 0 0 0 0 0 0 0
0 0 0 -0 -0 0 0 0 0 0 0 0 0 -0 0 -0 0 0 0 0 0 0 0 0 0 0 0 0 0 0 0 0 0 0 0 0 0 0 0 0 0 0 -0
0 -0 0 0 0 0 0 0 0 -0 0 0 0 0 0 -0 -0 0 -0 0 0 0 0 0 0 0 0 0 0 0 0 0 0 0 0 0 0 0 0 0 0 0 -0
-0 -0 0 0 0 0 0 0 -0 -0 0 0 0 0 0 0 0 0 0 0 0 0 0 0 0 0 0 0 0 0 0 0 0 0 0 0 0 0 0 0 0 0 -0
0 -0 0 0 0 0 0 0 0 0 0 0 0 0 0 0 0 -0 0 0 0 0 0 0 0 0 0 0 0 0 0 0 0 0 0 0 0 0 0 -0 -0 -0 -0
0 0 0 0 0 0 0 0 0 0 0 0 0 0 0 0 0 0 0 0 0 0 0 0 0 0 0 0 0 0 0 0 0 0 0 0 0 0 0 0 -0 0 -0
Wind_Speed_500mb
31 37 32 22 25 24 21 21 26 26 21 22 20 22 21 21 22 22 24 24 26 24 23 22 30 42 45 45 44 42 44 43 44 45 46 47 45 44 43 42 41 39 38
30 28 27 29 32 32 23 28 33 26 25 25 28 31 33 32 29 30 30 28 25 35 33 36 35 30 33 38 42 44 43 45 45 48 50 50 49 49 48 46 44 41 39
28 26 33 34 39 30 32 30 27 25 30 37 44 41 38 34 37 37 35 29 29 27 32 41 40 39 44 41 40 42 43 46 46 49 52 53 54 54 51 48 45 42 39
29 32 38 41 40 32 29 34 32 31 36 39 43 37 31 29 30 36 39 34 29 21 22 33 42 46 37 42 49 48 45 49 50 52 52 54 54 54 51 50 48 46 48
37 36 36 39 39 34 33 30 29 37 44 44 43 36 33 31 27 29 41 39 32 31 32 28 30 42 44 41 39 44 47 51 52 57 60 60 60 59 54 51 51 52 57
36 39 39 46 32 33 33 30 38 46 41 43 40 37 33 26 25 24 22 24 34 32 34 36 34 34 36 44 44 42 43 49 54 57 62 66 67 68 70 62 57 59 63
38 42 42 39 35 39 37 35 37 39 37 33 40 39 30 18 23 15 16 13 19 34 36 36 36 34 37 39 45 48 43 48 45 50 58 68 71 68 68 70 60 55 67
36 40 42 42 37 38 39 38 39 40 38 32 34 37 21 25 9 17 10 20 22 28 33 36 45 47 45 46 47 47 44 41 50 44 46 55 68 71 74 75 75 85 85
41 42 44 44 46 44 40 37 37 38 38 28 28 23 13 9 39 23 23 18 21 30 35 44 47 48 46 43 47 50 54 50 49 52 52 45 53 68 69 72 74 81 82
45 49 45 46 47 37 36 35 38 35 37 32 28 27 28 32 22 29 39 34 31 34 38 44 50 56 54 52 45 49 49 48 45 49 53 50 52 56 63 69 67 64 46
50 54 51 45 39 37 35 34 36 36 35 34 28 28 30 30 34 40 45 53 47 45 48 49 52 55 58 52 52 47 50 48 43 42 40 44 49 52 57 57 61 54 51
53 59 52 41 37 37 32 33 32 31 30 30 27 24 27 32 36 40 47 53 59 62 60 43 37 42 51 51 47 44 44 45 45 44 39 47 38 45 47 45 51 47 41
44 46 57 46 40 33 29 24 25 26 26 26 26 29 30 34 36 39 43 53 57 63 59 21 19 25 37 54 51 48 49 47 41 38 42 40 34 34 31 39 44 51 55
48 49 47 50 40 36 35 32 29 30 30 28 27 31 32 31 32 35 41 44 53 56 53 29 19 15 23 37 51 50 45 44 43 37 33 37 32 25 37 41 62 43 50
40 45 40 39 41 36 37 32 30 29 28 27 29 31 28 24 31 32 35 34 37 39 41 24 24 23 22 29 45 48 43 33 40 41 30 27 34 28 30 28 37 47 63
50 49 47 47 46 41 39 38 32 26 24 23 26 24 19 26 26 24 24 29 29 32 37 35 34 28 17 11 33 39 35 36 37 39 36 32 23 27 28 30 30 34 27
52 50 44 44 43 40 41 42 34 30 27 24 21 20 19 26 24 20 21 24 25 28 37 43 37 26 14 14 21 28 29 30 40 36 36 37 32 27 23 26 35 39 29
47 46 35 37 39 42 35 33 31 30 29 23 19 12 17 21 20 20 21 25 27 28 36 31 25 20 6 9 18 23 24 20 24 39 34 31 25 25 27 30 39 33 42
50 43 26 25 25 29 36 30 30 27 22 18 14 12 13 18 20 21 20 19 18 18 21 20 17 12 9 10 19 20 20 17 25 29 26 26 23 26 34 42 35 35 42
47 39 33 34 29 28 26 33 31 27 20 19 17 14 10 16 20 21 13 8 12 21 15 14 21 16 17 17 25 30 30 31 32 37 34 32 28 38 31 35 42 38 34
35 23 20 28 27 33 29 28 27 29 23 19 18 11 10 11 17 14 8 3 18 30 12 14 34 29 23 26 39 43 44 43 45 42 48 43 44 44 41 39 36 33 32
31 23 19 23 34 35 38 27 28 26 15 14 15 19 8 6 8 7 11 24 20 20 16 27 36 21 28 36 36 42 42 46 48 34 48 47 39 39 36 32 28 25 23
27 29 17 14 14 25 38 34 33 32 20 14 16 20 7 1 1 11 17 26 9 18 19 18 27 38 34 42 39 41 39 35 38 38 29 33 31 27 26 24 23 21 19
28 27 20 12 15 23 35 29 32 33 22 14 14 12 9 5 7 10 9 20 18 22 35 32 30 34 33 36 33 32 32 32 35 34 30 32 31 27 26 26 24 21 19
24 20 16 19 18 18 31 34 38 35 25 18 14 12 15 6 8 9 6 11 18 23 24 27 25 25 25 29 30 35 33 32 33 29 25 24 22 23 23 23 22 18 15
18 19 22 14 22 24 35 35 35 37 31 25 18 19 17 9 2 5 3 9 13 18 20 17 19 21 22 21 20 18 19 21 21 18 18 15 17 18 14 14 14 16 17
Wind_Direction_500mb
314 327 339 315 277 295 288 300 309 308 296 297 300 299 290 291 286 278 262 257 255 246 235 241 236 234 236 237 233 232 230 226 230 229 228 225 220 220 220 217 217 216 216
303 313 335 341 317 288 280 298 310 297 303 303 306 297 291 278 277 276 269 259 250 248 247 245 241 236 234 237 239 235 235 232 229 234 235 233 231 227 221 218 217 215 216
308 311 323 324 332 298 282 293 301 301 303 299 301 298 293 292 269 267 269 261 251 243 250 247 250 250 242 240 242 239 236 239 237 235 236 234 232 229 221 219 217 214 214
295 303 307 314 323 310 290 285 290 288 298 302 309 304 298 293 280 269 264 259 254 241 240 246 252 255 255 244 242 244 246 240 238 238 235 233 233 229 221 221 219 215 208
283 280 299 311 314 302 308 291 294 296 300 300 304 305 305 292 285 277 266 261 257 257 254 252 247 252 249 251 246 239 241 243 244 241 239 238 230 229 230 229 223 217 216
287 291 304 312 292 290 294 293 297 300 294 302 301 306 311 301 286 281 292 266 255 256 260 259 253 252 255 248 246 246 242 243 244 244 241 240 236 233 227 231 226 224 223
298 296 298 305 289 284 287 283 296 306 291 302 306 305 304 297 289 266 266 274 267 263 271 253 251 252 251 254 241 241 246 247 249 248 248 244 241 237 230 229 225 226 230
296 291 289 297 293 293 281 284 288 294 296 303 306 315 316 315 238 329 283 284 280 276 271 266 254 250 255 252 248 236 238 245 245 249 251 247 243 240 235 236 237 237 230
292 283 290 288 294 289 280 276 284 284 290 295 301 293 304 292 313 310 290 287 295 305 285 271 261 252 248 248 244 241 241 245 248 245 251 251 244 239 236 237 239 226 230
281 284 285 289 292 279 282 278 283 276 284 289 285 283 283 278 289 300 302 301 311 306 309 289 273 257 251 246 243 242 241 245 246 246 243 253 248 239 237 236 237 240 242
278 277 281 286 282 278 284 278 278 270 277 282 279 285 286 282 278 274 291 302 305 306 311 299 276 262 247 239 238 236 239 239 243 250 244 247 247 238 236 234 233 236 223
274 271 277 274 275 278 277 280 272 267 277 277 273 279 285 289 294 290 287 296 302 307 311 306 282 267 253 234 229 229 236 237 246 250 250 242 257 240 236 232 222 215 215
287 267 268 268 269 273 268 268 267 267 283 271 276 281 284 291 292 291 291 294 301 307 313 320 310 284 262 237 228 228 233 236 237 250 248 247 249 239 240 240 215 220 214
294 285 273 264 261 266 265 260 265 268 268 271 278 284 292 295 297 293 290 292 297 302 308 315 335 311 283 245 230 228 237 234 237 241 241 237 245 245 246 236 221 238 211
310 296 267 267 264 267 258 260 261 276 260 271 275 288 293 304 300 295 290 291 284 286 296 300 303 312 296 267 223 218 226 230 234 229 229 241 240 213 198 193 203 222 220
308 301 279 265 261 261 257 251 263 262 264 267 278 282 298 309 309 304 302 303 288 265 267 287 310 314 307 284 200 204 219 232 223 221 218 215 211 201 201 209 207 196 175
311 300 285 259 254 242 252 252 254 252 260 269 267 279 293 309 313 306 310 311 290 271 274 290 301 305 292 237 202 202 209 223 217 207 213 222 214 209 206 204 185 188 161
316 311 286 247 253 241 242 243 239 243 255 264 264 285 299 317 315 299 296 302 300 282 271 283 294 294 270 202 194 191 191 195 199 205 210 215 214 208 207 180 169 162 156
313 308 285 259 253 243 240 242 237 236 238 246 250 266 301 324 323 315 308 300 301 317 296 270 261 248 173 158 170 166 165 183 178 187 181 193 200 191 172 158 169 165 158
318 307 260 259 255 234 237 230 225 232 232 249 256 243 285 329 332 327 322 298 315 306 272 270 206 185 154 142 143 146 138 137 145 153 151 141 132 166 152 159 166 164 160
329 312 262 244 247 237 235 218 220 232 221 248 244 252 270 322 340 350 26 1 1 348 264 220 175 171 153 139 141 148 129 121 117 128 130 131 143 154 154 153 159 170 175
323 321 280 254 248 247 221 223 223 197 221 227 224 256 268 294 353 45 357 12 7 355 89 145 157 172 167 163 152 138 131 132 119 128 131 133 142 147 154 162 171 180 192
317 329 309 281 228 203 208 218 209 199 200 232 222 210 217 212 299 13 29 27 347 4 89 132 144 153 137 144 143 136 132 132 133 139 141 138 147 154 157 161 163 166 173
320 308 275 265 223 196 210 211 204 194 199 208 211 195 188 124 92 56 10 10 31 80 89 88 98 105 115 125 128 126 124 121 127 129 129 132 136 139 141 149 149 154 158
323 320 295 246 228 225 201 205 202 189 201 207 202 202 199 180 94 60 54 49 45 105 117 121 116 114 110 112 126 134 128 128 129 138 132 142 145 147 152 155 169 169 168
329 328 322 241 248 216 198 199 190 196 210 206 206 218 206 202 136 148 111 114 95 86 91 120 121 132 134 141 146 143 148 135 138 151 150 144 150 178 177 182 177 187 194
Wind_Speed_850mb
31 37 32 22 25 24 21 21 26 26 21 22 20 22 21 21 22 22 24 24 26 24 23 22 30 42 45 45 44 42 44 43 44 45 46 47 45 44 43 42 41 39 38
30 28 27 29 32 32 23 28 33 26 25 25 28 31 33 32 29 30 30 28 25 35 33 36 35 30 33 38 42 44 43 45 45 48 50 50 49 49 48 46 44 41 39
28 26 33 34 39 30 32 30 27 25 30 37 44 41 38 34 37 37 35 29 29 27 32 41 40 39 44 41 40 42 43 46 46 49 52 53 54 54 51 48 45 42 39
29 32 38 41 40 32 29 34 32 31 36 39 43 37 31 29 30 36 39 34 29 21 22 33 42 46 37 42 49 48 45 49 50 52 52 54 54 54 51 50 48 46 48
37 36 36 39 39 34 33 30 29 37 44 44 43 36 33 31 27 29 41 39 32 31 32 28 30 42 44 41 39 44 47 51 52 57 60 60 60 59 54 51 51 52 57
36 39 39 46 32 33 33 30 38 46 41 43 40 37 33 26 25 24 22 24 34 32 34 36 34 34 36 44 44 42 43 49 54 57 62 66 67 68 70 62 57 59 63
38 42 42 39 35 39 37 35 37 39 37 33 40 39 30 18 23 15 16 13 19 34 36 36 36 34 37 39 45 48 43 48 45 50 58 68 71 68 68 70 60 55 67
36 40 42 42 37 38 39 38 39 40 38 32 34 37 21 25 9 17 10 20 22 28 33 36 45 47 45 46 47 47 44 41 50 44 46 55 68 71 74 75 75 85 85
41 42 44 44 46 44 40 37 37 38 38 28 28 23 13 9 39 23 23 18 21 30 35 44 47 48 46 43 47 50 54 50 49 52 52 45 53 68 69 72 74 81 82
45 49 45 46 47 37 36 35 38 35 37 32 28 27 28 32 22 29 39 34 31 34 38 44 50 56 54 52 45 49 49 48 45 49 53 50 52 56 63 69 67 64 46
50 54 51 45 39 37 35 34 36 36 35 34 28 28 30 30 34 40 45 53 47 45 48 49 52 55 58 52 52 47 50 48 43 42 40 44 49 52 57 57 61 54 51
53 59 52 41 37 37 32 33 32 31 30 30 27 24 27 32 36 40 47 53 59 62 60 43 37 42 51 51 47 44 44 45 45 44 39 47 38 45 47 45 51 47 41
44 46 57 46 40 33 29 24 25 26 26 26 26 29 30 34 36 39 43 53 57 63 59 21 19 25 37 54 51 48 49 47 41 38 42 40 34 34 31 39 44 51 55
48 49 47 50 40 36 35 32 29 30 30 28 27 31 32 31 32 35 41 44 53 56 53 29 19 15 23 37 51 50 45 44 43 37 33 37 32 25 37 41 62 43 50
40 45 40 39 41 36 37 32 30 29 28 27 29 31 28 24 31 32 35 34 37 39 41 24 24 23 22 29 45 48 43 33 40 41 30 27 34 28 30 28 37 47 63
50 49 47 47 46 41 39 38 32 26 24 23 26 24 19 26 26 24 24 29 29 32 37 35 34 28 17 11 33 39 35 36 37 39 36 32 23 27 28 30 30 34 27
52 50 44 44 43 40 41 42 34 30 27 24 21 20 19 26 24 20 21 24 25 28 37 43 37 26 14 14 21 28 29 30 40 36 36 37 32 27 23 26 35 39 29
47 46 35 37 39 42 35 33 31 30 29 23 19 12 17 21 20 20 21 25 27 28 36 31 25 20 6 9 18 23 24 20 24 39 34 31 25 25 27 30 39 33 42
50 43 26 25 25 29 36 30 30 27 22 18 14 12 13 18 20 21 20 19 18 18 21 20 17 12 9 10 19 20 20 17 25 29 26 26 23 26 34 42 35 35 42
47 39 33 34 29 28 26 33 31 27 20 19 17 14 10 16 20 21 13 8 12 21 15 14 21 16 17 17 25 30 30 31 32 37 34 32 28 38 31 35 42 38 34
35 23 20 28 27 33 29 28 27 29 23 19 18 11 10 11 17 14 8 3 18 30 12 14 34 29 23 26 39 43 44 43 45 42 48 43 44 44 41 39 36 33 32
31 23 19 23 34 35 38 27 28 26 15 14 15 19 8 6 8 7 11 24 20 20 16 27 36 21 28 36 36 42 42 46 48 34 48 47 39 39 36 32 28 25 23
27 29 17 14 14 25 38 34 33 32 20 14 16 20 7 1 1 11 17 26 9 18 19 18 27 38 34 42 39 41 39 35 38 38 29 33 31 27 26 24 23 21 19
28 27 20 12 15 23 35 29 32 33 22 14 14 12 9 5 7 10 9 20 18 22 35 32 30 34 33 36 33 32 32 32 35 34 30 32 31 27 26 26 24 21 19
24 20 16 19 18 18 31 34 38 35 25 18 14 12 15 6 8 9 6 11 18 23 24 27 25 25 25 29 30 35 33 32 33 29 25 24 22 23 23 23 22 18 15
18 19 22 14 22 24 35 35 35 37 31 25 18 19 17 9 2 5 3 9 13 18 20 17 19 21 22 21 20 18 19 21 21 18 18 15 17 18 14 14 14 16 17
Wind_Direction_850mb
314 327 339 315 277 295 288 300 309 308 296 297 300 299 290 291 286 278 262 257 255 246 235 241 236 234 236 237 233 232 230 226 230 229 228 225 220 220 220 217 217 216 216
303 313 335 341 317 288 280 298 310 297 303 303 306 297 291 278 277 276 269 259 250 248 247 245 241 236 234 237 239 235 235 232 229 234 235 233 231 227 221 218 217 215 216
308 311 323 324 332 298 282 293 301 301 303 299 301 298 293 292 269 267 269 261 251 243 250 247 250 250 242 240 242 239 236 239 237 235 236 234 232 229 221 219 217 214 214
295 303 307 314 323 310 290 285 290 288 298 302 309 304 298 293 280 269 264 259 254 241 240 246 252 255 255 244 242 244 246 240 238 238 235 233 233 229 221 221 219 215 208
283 280 299 311 314 302 308 291 294 296 300 300 304 305 305 292 285 277 266 261 257 257 254 252 247 252 249 251 246 239 241 243 244 241 239 238 230 229 230 229 223 217 216
287 291 304 312 292 290 294 293 297 300 294 302 301 306 311 301 286 281 292 266 255 256 260 259 253 252 255 248 246 246 242 243 244 244 241 240 236 233 227 231 226 224 223
298 296 298 305 289 284 287 283 296 306 291 302 306 305 304 297 289 266 266 274 267 263 271 253 251 252 251 254 241 241 246 247 249 248 248 244 241 237 230 229 225 226 230
296 291 289 297 293 293 281 284 288 294 296 303 306 315 316 315 238 329 283 284 280 276 271 266 254 250 255 252 248 236 238 245 245 249 251 247 243 240 235 236 237 237 230
292 283 290 288 294 289 280 276 284 284 290 295 301 293 304 292 313 310 290 287 295 305 285 271 261 252 248 248 244 241 241 245 248 245 251 251 244 239 236 237 239 226 230
281 284 285 289 292 279 282 278 283 276 284 289 285 283 283 278 289 300 302 301 311 306 309 289 273 257 251 246 243 242 241 245 246 246 243 253 248 239 237 236 237 240 242
278 277 281 286 282 278 284 278 278 270 277 282 279 285 286 282 278 274 291 302 305 306 311 299 276 262 247 239 238 236 239 239 243 250 244 247 247 238 236 234 233 236 223
274 271 277 274 275 278 277 280 272 267 277 277 273 279 285 289 294 290 287 296 302 307 311 306 282 267 253 234 229 229 236 237 246 250 250 242 257 240 236 232 222 215 215
287 267 268 268 269 273 268 268 267 267 283 271 276 281 284 291 292 291 291 294 301 307 313 320 310 284 262 237 228 228 233 236 237 250 248 247 249 239 240 240 215 220 214
294 285 273 264 261 266 265 260 265 268 268 271 278 284 292 295 297 293 290 292 297 302 308 315 335 311 283 245 230 228 237 234 237 241 241 237 245 245 246 236 221 238 211
310 296 267 267 264 267 258 260 261 276 260 271 275 288 293 304 300 295 290 291 284 286 296 300 303 312 296 267 223 218 226 230 234 229 229 241 240 213 198 193 203 222 220
308 301 279 265 261 261 257 251 263 262 264 267 278 282 298 309 309 304 302 303 288 265 267 287 310 314 307 284 200 204 219 232 223 221 218 215 211 201 201 209 207 196 175
311 300 285 259 254 242 252 252 254 252 260 269 267 279 293 309 313 306 310 311 290 271 274 290 301 305 292 237 202 202 209 223 217 207 213 222 214 209 206 204 185 188 161
316 311 286 247 253 241 242 243 239 243 255 264 264 285 299 317 315 299 296 302 300 282 271 283 294 294 270 202 194 191 191 195 199 205 210 215 214 208 207 180 169 162 156
313 308 285 259 253 243 240 242 237 236 238 246 250 266 301 324 323 315 308 300 301 317 296 270 261 248 173 158 170 166 165 183 178 187 181 193 200 191 172 158 169 165 158
318 307 260 259 255 234 237 230 225 232 232 249 256 243 285 329 332 327 322 298 315 306 272 270 206 185 154 142 143 146 138 137 145 153 151 141 132 166 152 159 166 164 160
329 312 262 244 247 237 235 218 220 232 221 248 244 252 270 322 340 350 26 1 1 348 264 220 175 171 153 139 141 148 129 121 117 128 130 131 143 154 154 153 159 170 175
323 321 280 254 248 247 221 223 223 197 221 227 224 256 268 294 353 45 357 12 7 355 89 145 157 172 167 163 152 138 131 132 119 128 131 133 142 147 154 162 171 180 192
317 329 309 281 228 203 208 218 209 199 200 232 222 210 217 212 299 13 29 27 347 4 89 132 144 153 137 144 143 136 132 132 133 139 141 138 147 154 157 161 163 166 173
320 308 275 265 223 196 210 211 204 194 199 208 211 195 188 124 92 56 10 10 31 80 89 88 98 105 115 125 128 126 124 121 127 129 129 132 136 139 141 149 149 154 158
323 320 295 246 228 225 201 205 202 189 201 207 202 202 199 180 94 60 54 49 45 105 117 121 116 114 110 112 126 134 128 128 129 138 132 142 145 147 152 155 169 169 168
329 328 322 241 248 216 198 199 190 196 210 206 206 218 206 202 136 148 111 114 95 86 91 120 121 132 134 141 146 143 148 135 138 151 150 144 150 178 177 182 177 187 194